CW9785 Weather Reports


Display with metric or nautical units.
time (UTC)temp
F
wind
direction
speed
MPH
gust
MPH
rain 1hr
in
rain 24hr
in
rain mn
in
humidity
%
barometer
mb
20260505011524 75 97 8.0 14.0 0.00 0.00 0.00 41 999.5
20260505011028 75 97 8.0 13.0 0.00 0.00 0.00 40 999.5
20260505010600 75 113 8.0 13.0 0.00 0.00 0.00 39 999.6
20260505010019 76 81 8.0 13.0 0.00 0.00 0.00 40 999.5
20260505005530 76 103 6.0 9.0 0.00 0.00 0.00 39 999.5
20260505005022 77 67 2.0 8.0 0.00 0.00 0.00 39 999.6
20260505004523 77 99 5.0 8.0 0.00 0.00 0.00 38 999.7
20260505004033 77 81 5.0 8.0 0.00 0.00 0.00 37 999.8
20260505003544 78 107 5.0 8.0 0.00 0.00 0.00 37 999.9
20260505003032 78 113 5.0 8.0 0.00 0.00 0.00 38 1000.0
20260505002534 78 190 2.0 7.0 0.00 0.00 0.00 37 1000.0
20260505002025 79 60 3.0 12.0 0.00 0.00 0.00 36 999.9
20260505001528 79 33 8.0 12.0 0.00 0.00 0.00 33 999.9
20260505001018 78 84 6.0 11.0 0.00 0.00 0.00 32 999.9
20260505000529 78 53 4.0 10.0 0.00 0.00 0.00 33 999.9
20260505000033 78 15 4.0 12.0 0.00 0.00 0.00 35 999.8
20260504235531 78 38 6.0 12.0 0.00 0.00 0.00 35 1000.0
20260504235022 78 36 7.0 15.0 0.00 0.00 0.00 36 1000.0
20260504234533 79 32 9.0 15.0 0.00 0.00 0.00 35 1000.0
20260504234035 78 20 8.0 12.0 0.00 0.00 0.00 35 1000.0
20260504233546 79 46 7.0 13.0 0.00 0.00 0.00 34 1000.2
20260504233034 79 26 9.0 20.0 0.00 0.00 0.00 35 1000.3
20260504232545 80 26 10.0 20.0 0.00 0.00 0.00 34 1000.2
20260504232027 81 55 9.0 18.0 0.00 0.00 0.00 31 1000.0
20260504231538 81 25 10.0 16.0 0.00 0.00 0.00 30 1000.0
20260504231048 81 355 10.0 20.0 0.00 0.00 0.00 31 999.9
20260504230529 82 42 9.0 20.0 0.00 0.00 0.00 28 999.8
20260504230038 82 23 11.0 17.0 0.00 0.00 0.00 30 999.8
20260504225529 82 177 3.0 7.0 0.00 0.00 0.00 31 999.8
20260504225101 81 100 1.0 5.0 0.00 0.00 0.00 31 999.8
20260504224522 81 245 1.0 6.0 0.00 0.00 0.00 32 1000.0
20260504224032 81 333 4.0 9.0 0.00 0.00 0.00 31 1000.1
20260504223540 81 313 3.0 15.0 0.00 0.00 0.00 29 1000.2
20260504223040 81 327 9.0 18.0 0.00 0.00 0.00 31 1000.1
20260504222531 82 36 5.0 18.0 0.00 0.00 0.00 30 1000.6
20260504222041 83 97 6.0 11.0 0.00 0.00 0.00 26 1000.5
20260504221523 83 146 7.0 11.0 0.00 0.00 0.00 28 1000.3
20260504221034 83 114 4.0 10.0 0.00 0.00 0.00 28 1000.1
20260504220545 84 111 6.0 10.0 0.00 0.00 0.00 27 1000.0
20260504220025 84 217 3.0 10.0 0.00 0.00 0.00 28 1000.0
20260504215536 84 127 4.0 10.0 0.00 0.00 0.00 28 1000.1
20260504215025 84 131 3.0 13.0 0.00 0.00 0.00 28 1000.0
20260504214526 84 160 5.0 13.0 0.00 0.00 0.00 28 1000.1
20260504214037 85 101 6.0 13.0 0.00 0.00 0.00 25 1000.1
20260504213547 85 88 6.0 10.0 0.00 0.00 0.00 23 1000.1
20260504213035 85 101 3.0 9.0 0.00 0.00 0.00 25 1000.1
20260504212537 85 229 2.0 9.0 0.00 0.00 0.00 25 1000.1
20260504212027 85 99 3.0 11.0 0.00 0.00 0.00 24 1000.1
20260504211534 85 93 6.0 14.0 0.00 0.00 0.00 24 1000.1
20260504211036 85 107 8.0 14.0 0.00 0.00 0.00 24 1000.3
20260504210527 85 110 5.0 14.0 0.00 0.00 0.00 25 1000.3
20260504210025 85 96 4.0 15.0 0.00 0.00 0.00 23 1000.4
20260504205536 85 101 4.0 10.0 0.00 0.00 0.00 23 1000.4
20260504205047 85 269 4.0 9.0 0.00 0.00 0.00 22 1000.5
20260504204536 85 99 3.0 11.0 0.00 0.00 0.00 24 1000.6
20260504204018 85 103 6.0 11.0 0.00 0.00 0.00 24 1000.7
20260504203529 86 130 5.0 12.0 0.00 0.00 0.00 23 1000.7
20260504203038 86 108 6.0 12.0 0.00 0.00 0.00 25 1000.8
20260504202520 86 146 6.0 11.0 0.00 0.00 0.00 24 1001.0
20260504202031 86 90 5.0 13.0 0.00 0.00 0.00 26 1001.0
20260504201542 86 30 8.0 13.0 0.00 0.00 0.00 25 1001.0
20260504201024 85 61 4.0 12.0 0.00 0.00 0.00 25 1001.2
20260504200534 85 80 4.0 12.0 0.00 0.00 0.00 23 1001.3
20260504200022 85 50 4.0 15.0 0.00 0.00 0.00 27 1001.4
20260504195524 85 34 9.0 18.0 0.00 0.00 0.00 25 1001.4
20260504195031 85 48 6.0 18.0 0.00 0.00 0.00 26 1001.5
20260504194542 85 77 6.0 14.0 0.00 0.00 0.00 24 1001.5
20260504194024 85 76 6.0 16.0 0.00 0.00 0.00 27 1001.7
20260504193532 85 80 6.0 16.0 0.00 0.00 0.00 27 1001.7
20260504193041 84 65 5.0 12.0 0.00 0.00 0.00 26 1001.9
20260504192521 84 251 2.0 13.0 0.00 0.00 0.00 29 1001.9
20260504192032 83 11 6.0 13.0 0.00 0.00 0.00 31 1002.0
20260504191544 83 40 6.0 11.0 0.00 0.00 0.00 26 1002.0
20260504191033 83 38 5.0 12.0 0.00 0.00 0.00 28 1002.1
20260504190544 83 68 6.0 12.0 0.00 0.00 0.00 28 1002.2
20260504190024 82 36 7.0 13.0 0.00 0.00 0.00 26 1002.3
20260504185535 82 17 5.0 13.0 0.00 0.00 0.00 28 1002.4
20260504185017 82 68 4.0 13.0 0.00 0.00 0.00 27 1002.5
20260504184528 83 33 5.0 12.0 0.00 0.00 0.00 29 1002.5
20260504184039 83 101 4.0 12.0 0.00 0.00 0.00 28 1002.4
20260504183520 83 70 3.0 15.0 0.00 0.00 0.00 28 1002.5
20260504183029 83 50 8.0 15.0 0.00 0.00 0.00 30 1002.5
20260504182537 83 5 8.0 15.0 0.00 0.00 0.00 29 1002.5
20260504182018 83 10 9.0 15.0 0.00 0.00 0.00 28 1002.7
20260504181528 83 205 5.0 13.0 0.00 0.00 0.00 27 1002.6
20260504181029 83 23 6.0 14.0 0.00 0.00 0.00 28 1002.8
20260504180520 84 31 9.0 14.0 0.00 0.00 0.00 29 1002.9
20260504180029 84 51 8.0 14.0 0.00 0.00 0.00 28 1003.0
20260504175530 84 42 7.0 13.0 0.00 0.00 0.00 28 1002.9
20260504175020 84 40 4.0 13.0 0.00 0.00 0.00 28 1003.0
20260504174549 84 32 6.0 13.0 0.00 0.00 0.00 28 1003.0
20260504174039 84 128 6.0 14.0 0.00 0.00 0.00 27 1003.1
20260504173541 84 34 6.0 15.0 0.00 0.00 0.00 26 1003.1
20260504173029 85 5 8.0 15.0 0.00 0.00 0.00 25 1003.1
20260504172520 85 27 5.0 12.0 0.00 0.00 0.00 31 1003.1
20260504172021 85 42 4.0 12.0 0.00 0.00 0.00 24 1003.1
20260504171553 86 35 7.0 14.0 0.00 0.00 0.00 29 1003.1
20260504171023 86 34 7.0 14.0 0.00 0.00 0.00 26 1003.1
20260504170529 87 360 6.0 10.0 0.00 0.00 0.00 23 1003.1
20260504151058 77 292 2.0 5.0 0.00 0.00 0.00 42 1003.1
20260504150519 76 155 3.0 4.0 0.00 0.00 0.00 44 1003.1
20260504141023 65 198 5.0 9.0 0.00 0.00 0.00 53 1003.7
20260504140533 64 248 4.0 9.0 0.00 0.00 0.00 56 1003.7
20260504130535 54 244 2.0 7.0 0.00 0.00 0.00 65 1003.5
20260504110524 55 228 6.0 9.0 0.00 0.00 0.00 54 1003.3
20260504100528 58 194 4.0 9.0 0.00 0.00 0.00 49 1003.5
20260504081531 51 238 7.0 13.0 0.00 0.00 0.00 78 1004.5
20260504081042 51 228 8.0 13.0 0.00 0.00 0.00 77 1004.5
20260504080523 51 232 8.0 13.0 0.00 0.00 0.00 77 1004.5
20260504050600 65 194 5.0 10.0 0.00 0.00 0.00 36 1005.5
20260504045529 66 238 4.0 9.0 0.00 0.00 0.00 36 1005.6
20260504045030 66 236 5.0 10.0 0.00 0.00 0.00 36 1005.6
20260504044520 66 236 6.0 10.0 0.00 0.00 0.00 35 1005.6
20260504044030 67 241 5.0 10.0 0.00 0.00 0.00 35 1005.6
20260504043532 67 242 3.0 8.0 0.00 0.00 0.00 34 1005.7
20260504043021 67 271 3.0 8.0 0.00 0.00 0.00 35 1005.8
20260504042553 67 229 5.0 10.0 0.00 0.00 0.00 34 1005.7
20260504042042 67 232 4.0 10.0 0.00 0.00 0.00 34 1005.7
20260504041523 68 227 4.0 7.0 0.00 0.00 0.00 33 1005.8
20260504041030 68 221 2.0 6.0 0.00 0.00 0.00 34 1005.7
20260504040522 68 194 3.0 9.0 0.00 0.00 0.00 33 1005.7
20260504040051 68 207 2.0 9.0 0.00 0.00 0.00 33 1005.7
20260504035532 68 198 3.0 8.0 0.00 0.00 0.00 32 1005.6
20260504035023 69 183 5.0 8.0 0.00 0.00 0.00 32 1005.7
20260504034552 69 214 4.0 8.0 0.00 0.00 0.00 33 1005.7
20260504034041 69 227 4.0 8.0 0.00 0.00 0.00 32 1005.7
20260504033532 69 186 4.0 9.0 0.00 0.00 0.00 32 1005.6
20260504033031 69 215 4.0 7.0 0.00 0.00 0.00 31 1005.6
20260504032542 69 190 4.0 8.0 0.00 0.00 0.00 31 1005.7
20260504032032 70 194 4.0 10.0 0.00 0.00 0.00 30 1005.6
20260504031542 70 199 4.0 10.0 0.00 0.00 0.00 29 1005.6
20260504031022 71 167 5.0 7.0 0.00 0.00 0.00 29 1005.6
20260504030529 71 190 5.0 7.0 0.00 0.00 0.00 28 1005.6
20260504030037 72 165 3.0 6.0 0.00 0.00 0.00 27 1005.4
20260504025518 72 188 3.0 6.0 0.00 0.00 0.00 27 1005.5
20260504025028 73 165 3.0 11.0 0.00 0.00 0.00 27 1005.5
20260504024539 73 153 5.0 11.0 0.00 0.00 0.00 26 1005.4
20260504024021 73 159 6.0 9.0 0.00 0.00 0.00 25 1005.3
20260504023532 74 171 4.0 8.0 0.00 0.00 0.00 24 1005.2
20260504023041 74 171 3.0 6.0 0.00 0.00 0.00 24 1005.2
20260504022523 74 178 2.0 7.0 0.00 0.00 0.00 23 1005.1
20260504022033 75 171 4.0 8.0 0.00 0.00 0.00 23 1005.1
20260504021545 75 200 5.0 8.0 0.00 0.00 0.00 23 1005.1
20260504021026 76 167 3.0 8.0 0.00 0.00 0.00 23 1005.0
20260504020537 76 155 3.0 7.0 0.00 0.00 0.00 22 1005.0
20260504020046 76 167 3.0 8.0 0.00 0.00 0.00 21 1004.9
20260504015528 77 163 3.0 8.0 0.00 0.00 0.00 21 1004.9
20260504015018 77 162 4.0 9.0 0.00 0.00 0.00 22 1004.9
20260504014521 78 179 6.0 9.0 0.00 0.00 0.00 21 1004.8
20260504014032 78 209 6.0 10.0 0.00 0.00 0.00 20 1004.8
20260504013559 78 184 6.0 10.0 0.00 0.00 0.00 20 1004.9
20260504013027 79 176 6.0 10.0 0.00 0.00 0.00 20 1004.8
20260504012536 79 162 5.0 11.0 0.00 0.00 0.00 20 1004.7
20260504012046 79 173 6.0 11.0 0.00 0.00 0.00 20 1004.8